• In Russia
  • List of Countries
  • For 7 days
  • Water Temperature
  • Satellite Maps
  • Weather Map
  • Weather Widgets
  • user-avatar
    Login

    Hourly Weather Canberra

    Today, 24 April, Monday

    Time Temperature Precipitation Wind Pressure Humidity
    00:00 +9°C° 0 mm 0 mps 713 mmHg 96%
    01:00 +9°C° 0 mm 0 mps 713 mmHg 97%
    02:00 +8°C° 0 mm 0 mps 712 mmHg 97%
    03:00 +8°C° 0 mm 0 mps 712 mmHg 97%
    04:00 +8°C° 0 mm 0 mps 712 mmHg 98%
    05:00 +8°C° 0 mm 0 mps 712 mmHg 98%
    06:00 +8°C° 0 mm 0 mps 712 mmHg 98%
    07:00 +8°C° 0 mm 0 mps 712 mmHg 98%
    08:00 +12°C° 0 mm 0 mps 713 mmHg 85%
    09:00 +16°C° 0 mm 1 mps 713 mmHg 72%
    10:00 +21°C° 0 mm 1 mps 714 mmHg 59%
    11:00 +22°C° 0 mm 1 mps 713 mmHg 54%
    12:00 +23°C° 0 mm 2 mps 713 mmHg 48%
    13:00 +24°C° 0 mm 2 mps 712 mmHg 42%
    14:00 +24°C° 0.1 mm 2 mps 712 mmHg 43%
    15:00 +23°C° 0.1 mm 2 mps 711 mmHg 45%
    16:00 +22°C° 0 mm 1 mps 711 mmHg 47%
    17:00 +20°C° 0 mm 1 mps 710 mmHg 58%
    18:00 +16°C° 0 mm 1 mps 710 mmHg 68%
    19:00 +13°C° 0 mm 1 mps 710 mmHg 78%
    20:00 +13°C° 0 mm 1 mps 710 mmHg 80%
    21:00 +13°C° 0 mm 1 mps 710 mmHg 82%
    22:00 +12°C° 0 mm 1 mps 710 mmHg 84%
    23:00 +12°C° 0 mm 1 mps 709 mmHg 84%

    Tomorrow, 25 April, Tuesday

    Time Temperature Precipitation Wind Pressure Humidity
    00:00 +13°C° 0 mm 1 mps 709 mmHg 83%
    01:00 +13°C° 0 mm 1 mps 709 mmHg 83%
    02:00 +13°C° 0.1 mm 1 mps 708 mmHg 84%
    03:00 +13°C° 0.1 mm 1 mps 708 mmHg 85%
    04:00 +14°C° 0.1 mm 2 mps 707 mmHg 86%
    05:00 +14°C° 0.2 mm 2 mps 707 mmHg 85%
    06:00 +14°C° 0.2 mm 2 mps 706 mmHg 84%
    07:00 +15°C° 0.2 mm 2 mps 706 mmHg 83%
    08:00 +16°C° 0.5 mm 3 mps 706 mmHg 81%
    09:00 +17°C° 0.5 mm 4 mps 706 mmHg 79%
    10:00 +16°C° 0.5 mm 5 mps 706 mmHg 77%
    11:00 +16°C° 1.5 mm 5 mps 705 mmHg 82%
    12:00 +15°C° 1.5 mm 5 mps 704 mmHg 87%
    13:00 +15°C° 1.5 mm 4 mps 704 mmHg 93%
    14:00 +15°C° 0.2 mm 4 mps 704 mmHg 91%
    15:00 +15°C° 0.2 mm 4 mps 703 mmHg 89%
    16:00 +15°C° 0.2 mm 4 mps 703 mmHg 88%
    17:00 +16°C° 0.2 mm 3 mps 703 mmHg 89%
    18:00 +14°C° 0.2 mm 3 mps 703 mmHg 91%
    19:00 +14°C° 0.2 mm 3 mps 703 mmHg 92%
    20:00 +13°C° 0 mm 3 mps 703 mmHg 92%
    21:00 +13°C° 0 mm 3 mps 703 mmHg 92%
    22:00 +13°C° 0 mm 3 mps 703 mmHg 91%
    23:00 +12°C° 0 mm 3 mps 703 mmHg 91%

    Day after tomorrow, 26 April, Wednesday

    Time Temperature Precipitation Wind Pressure Humidity
    00:00 +12°C° 0 mm 3 mps 703 mmHg 90%
    01:00 +11°C° 0 mm 3 mps 702 mmHg 89%
    02:00 +11°C° 0 mm 3 mps 702 mmHg 90%
    03:00 +11°C° 0 mm 3 mps 702 mmHg 90%
    04:00 +11°C° 0 mm 3 mps 701 mmHg 90%
    05:00 +10°C° 0 mm 3 mps 701 mmHg 90%
    06:00 +10°C° 0 mm 3 mps 701 mmHg 90%
    07:00 +9°C° 0 mm 2 mps 701 mmHg 90%
    08:00 +10°C° 0.6 mm 3 mps 701 mmHg 88%
    09:00 +10°C° 0.6 mm 4 mps 701 mmHg 87%
    10:00 +10°C° 0.6 mm 5 mps 702 mmHg 85%
    11:00 +10°C° 0.3 mm 5 mps 702 mmHg 81%
    12:00 +9°C° 0.3 mm 5 mps 702 mmHg 76%
    13:00 +10°C° 0.3 mm 4 mps 702 mmHg 72%
    14:00 +10°C° 0.1 mm 4 mps 703 mmHg 71%
    15:00 +10°C° 0.1 mm 4 mps 703 mmHg 70%
    16:00 +10°C° 0.1 mm 4 mps 704 mmHg 70%
    17:00 +9°C° 0 mm 3 mps 704 mmHg 73%
    18:00 +8°C° 0 mm 3 mps 705 mmHg 76%
    19:00 +7°C° 0 mm 3 mps 706 mmHg 80%
    20:00 +6°C° 0 mm 2 mps 706 mmHg 81%
    21:00 +6°C° 0 mm 2 mps 707 mmHg 82%
    22:00 +5°C° 0 mm 2 mps 707 mmHg 84%
    23:00 +5°C° 0 mm 2 mps 708 mmHg 82%

    27 April, Thursday

    Time Temperature Precipitation Wind Pressure Humidity
    00:00 +5°C° 0 mm 2 mps 708 mmHg 81%
    01:00 +4°C° 0 mm 2 mps 708 mmHg 79%
    02:00 +4°C° 0 mm 2 mps 708 mmHg 79%
    03:00 +4°C° 0 mm 2 mps 708 mmHg 80%
    04:00 +4°C° 0 mm 2 mps 708 mmHg 80%
    05:00 +4°C° 0 mm 2 mps 708 mmHg 81%
    06:00 +3°C° 0 mm 2 mps 709 mmHg 81%
    07:00 +3°C° 0 mm 2 mps 709 mmHg 82%
    08:00 +5°C° 0 mm 2 mps 710 mmHg 72%
    09:00 +7°C° 0 mm 2 mps 711 mmHg 62%
    10:00 +10°C° 0 mm 3 mps 711 mmHg 52%
    11:00 +12°C° 0 mm 2 mps 711 mmHg 48%
    12:00 +13°C° 0 mm 2 mps 711 mmHg 44%
    13:00 +14°C° 0 mm 2 mps 711 mmHg 40%
    14:00 +13°C° 0 mm 2 mps 711 mmHg 43%
    15:00 +13°C° 0 mm 2 mps 711 mmHg 46%
    16:00 +12°C° 0 mm 2 mps 711 mmHg 48%
    17:00 +10°C° 0 mm 2 mps 711 mmHg 55%
    18:00 +8°C° 0 mm 2 mps 712 mmHg 61%
    19:00 +6°C° 0 mm 2 mps 712 mmHg 67%
    20:00 +5°C° 0 mm 2 mps 712 mmHg 70%
    21:00 +5°C° 0 mm 2 mps 713 mmHg 73%
    22:00 +4°C° 0 mm 2 mps 713 mmHg 76%
    23:00 +4°C° 0 mm 2 mps 713 mmHg 77%

    28 April, Friday

    Time Temperature Precipitation Wind Pressure Humidity
    00:00 +4°C° 0 mm 1 mps 713 mmHg 79%
    01:00 +4°C° 0 mm 1 mps 713 mmHg 81%
    02:00 +4°C° 0 mm 1 mps 713 mmHg 82%
    03:00 +4°C° 0 mm 1 mps 712 mmHg 82%
    04:00 +4°C° 0 mm 1 mps 712 mmHg 83%
    05:00 +4°C° 0 mm 1 mps 713 mmHg 82%
    06:00 +4°C° 0 mm 1 mps 713 mmHg 81%
    07:00 +4°C° 0 mm 1 mps 713 mmHg 80%
    08:00 +7°C° 0 mm 1 mps 714 mmHg 69%
    09:00 +10°C° 0 mm 1 mps 714 mmHg 57%
    10:00 +13°C° 0 mm 1 mps 714 mmHg 46%
    11:00 +15°C° 0 mm 1 mps 714 mmHg 44%
    12:00 +16°C° 0 mm 1 mps 713 mmHg 41%
    13:00 +19°C° 0 mm 1 mps 713 mmHg 39%
    14:00 +17°C° 0 mm 2 mps 712 mmHg 43%
    15:00 +17°C° 0 mm 2 mps 712 mmHg 46%
    16:00 +16°C° 0 mm 2 mps 712 mmHg 50%
    17:00 +14°C° 0 mm 2 mps 712 mmHg 61%
    18:00 +12°C° 0 mm 2 mps 712 mmHg 72%
    19:00 +9°C° 0 mm 2 mps 712 mmHg 83%
    20:00 +8°C° 0 mm 2 mps 712 mmHg 87%
    21:00 +8°C° 0 mm 2 mps 712 mmHg 91%
    22:00 +8°C° 0 mm 1 mps 712 mmHg 95%
    23:00 +8°C° 0 mm 1 mps 711 mmHg 95%

    29 April, Saturday

    Time Temperature Precipitation Wind Pressure Humidity
    00:00 +8°C° 0 mm 1 mps 711 mmHg 96%
    01:00 +7°C° 0 mm 1 mps 711 mmHg 96%
    02:00 +7°C° 0 mm 1 mps 710 mmHg 96%
    03:00 +7°C° 0 mm 1 mps 710 mmHg 96%
    04:00 +6°C° 0 mm 2 mps 710 mmHg 97%
    05:00 +6°C° 0 mm 2 mps 710 mmHg 96%
    06:00 +6°C° 0 mm 2 mps 710 mmHg 96%
    07:00 +6°C° 0 mm 2 mps 710 mmHg 95%
    08:00 +9°C° 0 mm 2 mps 710 mmHg 84%
    09:00 +11°C° 0 mm 3 mps 710 mmHg 72%
    10:00 +13°C° 0 mm 3 mps 711 mmHg 61%
    11:00 +14°C° 0 mm 3 mps 710 mmHg 57%
    12:00 +16°C° 0 mm 3 mps 710 mmHg 53%
    13:00 +17°C° 0 mm 4 mps 709 mmHg 49%
    14:00 +17°C° 0 mm 4 mps 709 mmHg 53%
    15:00 +15°C° 0 mm 4 mps 709 mmHg 56%
    16:00 +14°C° 0 mm 4 mps 709 mmHg 60%
    17:00 +13°C° 0 mm 3 mps 709 mmHg 68%
    18:00 +11°C° 0 mm 3 mps 710 mmHg 76%
    19:00 +9°C° 0 mm 2 mps 710 mmHg 84%
    20:00 +9°C° 0 mm 2 mps 711 mmHg 83%
    21:00 +8°C° 0 mm 2 mps 711 mmHg 82%
    22:00 +7°C° 0 mm 2 mps 712 mmHg 81%
    23:00 +6°C° 0 mm 2 mps 712 mmHg 80%
    Show more